Regional Weather Roundup
Issued by NWS

Home | Current Version | Previous Version | Graphics & Text | Print | Product List | Glossary On
Versions: 1 2 3 4 5 6 7 8 9 10 11 12 13 14 15 16 17 18 19 20 21 22 23 24 25 26 27 28 29 30 31 32 33 34 35 36 37 38 39 40 41 42 43 44 45 46 47 48 49 50
000
ASUS43 KFSD 051210
RWRSD

WEATHER ROUNDUP FOR SOUTH DAKOTA
NATIONAL WEATHER SERVICE SIOUX FALLS SD
600 AM CST MON DEC 05 2016

NOTE: "FAIR" INDICATES FEW OR NO CLOUDS BELOW 12,000 FEET WITH NO
SIGNIFICANT WEATHER AND/OR OBSTRUCTIONS TO VISIBILITY.


SDZ001>005-009-010-012>017-051300-
NORTHWEST AND NORTH CENTRAL SOUTH DAKOTA

CITY           SKY/WX    TMP DP  RH WIND       PRES   REMARKS
BUFFALO          N/A     33  29  85 NW23      29.46S WCI  21
FAITH            N/A     25  22  88 NW17      29.48S WCI  12
MOBRIDGE       PTCLDY    29  20  69 E10       29.47F WCI  20
$$

SDZ012>016-024>037-041>051-057-063-072>074-051300-
SOUTHWEST AND SOUTH CENTRAL SOUTH DAKOTA

CITY           SKY/WX    TMP DP  RH WIND       PRES   REMARKS
RAPID CTY ARPT PTCLDY    34  29  82 NW28G36   29.49R WCI  21
PIERRE         CLEAR     25  21  85 SE6       29.48F WCI  18
CUSTER         CLOUDY    30  20  66 SW3       29.45S
ELLSWORTH AFB  MOCLDY    34  31  90 NW28G38   29.48R WCI  21
PHILIP         MOCLDY    25  22  88 NW3       29.46F
PINE RIDGE     CLOUDY    30  23  75 CALM      29.49F
SPEARFISH      LGT SNOW  30  30 100 W13G22    29.54S VSB 1   WCI  20
WINNER         FAIR      40  22  48 SW12      29.49F
$$

SDZ004>011-016>023-039-040-051300-
NORTHEAST SOUTH DAKOTA

CITY           SKY/WX    TMP DP  RH WIND       PRES   REMARKS
ABERDEEN       CLEAR     23  20  88 N6        29.58S WCI  16
WATERTOWN      PTCLDY    32  27  81 SE7       29.58F WCI  26
BROOKINGS      CLEAR     31  28  89 SE14      29.59F WCI  21
SISSETON         N/A     25  23  92 SW7       29.63F WCI  17
$$

SDZ017-020-022-023-036>040-048>070-051300-
SOUTHEAST SOUTH DAKOTA

CITY           SKY/WX    TMP DP  RH WIND       PRES   REMARKS
SIOUX FALLS    CLOUDY    35  29  78 S10       29.62F WCI  27
HURON          PTCLDY    31  27  85 SE10      29.55F WCI  22
CHAMBERLAIN    PTCLDY    30  26  83 S6        29.50F WCI  24
MITCHELL       PTCLDY    33  28  81 S12       29.56F WCI  24
YANKTON        CLOUDY    37  27  65 S12       29.61F
$$

ABBREVIATIONS USED IN REMARKS
   TC - TEMPERATURE IN CELSIUS
  WCI - WIND CHILL INDEX
   HX - HEAT INDEX
  VSB - VISIBILITY





USA.gov is the U.S. government's official web portal to all federal, state and local government web resources and services.